Hourly Data Report for October 23, 2019

QUALICUM BEACH AIRPORT
BRITISH COLUMBIA
Current Station Operator: ECCC - MSC

49°20'14.000" N
124°23'38.000" W
58.20 m
1026562
71766
VOQ

Download Data

Hourly Data (October 2019)
Hourly Data Report for October 23, 2019
TIME
LST
Temp Definition
°C
Dew Point Definition
°C
Rel Hum Definition
%
Precip. Amount Definition
mm

Wind Dir Definition
10's deg

Wind Spd Definition
km/h
Visibility Definition
km
Stn Press Definition
kPa
Hmdx Definition


Wind Chill Definition


Weather Definition


00:00 6.6 4.6 87 0.0 26 7   102.46     LegendNANA
01:00 5.4 4.5 94 0.0 27 7   102.48     LegendNANA
02:00 6.8 4.1 83 0.0 27 9   102.52     LegendNANA
03:00 5.0 4.1 94 0.0 26 6   102.53     LegendNANA
04:00 4.4 3.6 95 0.0 25 3   102.55     LegendNANA
05:00 4.3 3.3 93 0.0 29 4   102.58     LegendNANA
06:00 3.3 2.7 95 0.0 21 2   102.61     LegendNANA
07:00 3.2 2.7 97 0.0 23 2   102.63     LegendNANA
08:00 4.5 4.0 97 0.0 23 2   102.65     LegendNANA
09:00 8.8 6.6 87 0.0 23 1   102.72     LegendNANA
10:00 10.5 6.4 76 0.0 36 2   102.70     LegendNANA
11:00 10.8 6.8 76 0.0 7 4   102.72     LegendNANA
12:00 10.2 6.5 78 0.0 3 3   102.71     LegendNANA
13:00 10.9 6.1 72 0.0 2 4   102.66     LegendNANA
14:00 10.5 6.3 75 0.0 3 5   102.62     LegendNANA
15:00 10.1 6.8 80 0.0 34 3   102.64     LegendNANA
16:00 9.7 6.9 83 0.0 33 5   102.61     LegendNANA
17:00 9.3 7.0 86 0.0 33 4   102.56     LegendNANA
18:00 8.5 6.9 90 0.0 0 1   102.46     LegendNANA
19:00 8.3 7.2 92 0.0 25 1   102.45     LegendNANA
20:00 8.4 7.0 91 0.0 0 1   102.42     LegendNANA
21:00 8.1 7.0 93 0.0 20 3   102.38     LegendNANA
22:00 7.0 6.2 95 0.0 24 2   102.36     LegendNANA
23:00 7.2 6.6 96 0.0 0 1   102.33     LegendNANA

Notes on Data Quality.

Legend

  • E = Estimated
  • M = Missing
  • NA = Not Available*
  • [empty] = Indicates an unobserved value
Date modified: